Location: Newark
(32.2028°N, 95.8492°W)
Time: 17:54:47
(UTC+00:00)

N. Korean satellite - Visible Passes

Search period start: 15 September 2019 00:00
Search period end: 25 September 2019 00:00
Orbit: 455 x 508 km, 97.2° (Epoch: 15 September)

Date Brightness Start Highest point End Pass type
(mag) Time Alt. Az. Time Alt. Az. Time Alt. Az.
16 Sep 9.7 11:29:18 10° NE 11:31:30 16° E 11:33:42 10° SE visible
19 Sep 8.9 11:46:17 10° NE 11:49:18 29° E 11:52:19 10° SSE visible
20 Sep 10.0 11:22:21 10° ENE 11:23:58 13° E 11:25:36 10° ESE visible
23 Sep 9.4 11:38:59 10° NE 11:41:46 23° E 11:44:33 10° SSE visible
24 Sep 10.5 11:16:05 10° E 11:16:25 10° E 11:16:44 10° E visible
